Location: Ahausen
(50.4985°N, 8.2722°E)
Time: 09:26:59
(UTC+00:00)

Cosmos 2082 Rocket - Pass Details

Date: 18 September 2020
Orbit: 834 x 853 km, 71.0° (Epoch: 25 October)

Event Time Altitude Azimuth Distance (km) Brightness Sun altitude
Rises 20:38:43 0° 332° (NNW) 3,394 6.4 -27.7°
Reaches altitude 10° 20:41:14 10° 337° (NNW) 2,456 5.4 -27.9°
Enters shadow 20:46:17 51° 36° (NE) 1,042 2.6 -28.5°
